SCP
-0 0 0 -0 -0 -0 -0 -0 -0 -0 -0 0 0 0 0 0 0 0 0 0 0 0 -0 -0 -0 -0 0 0 0 0 0 0 0 0 0 0 0 0 0 0 0 0 0 0 0 0 0
0 -0 -0 -0 -0 -0 -0 -0 -0 -0 -0 -0 0 -0 -0 0 0 0 0 0 0 0 -0 -0 -0 -0 -0 0 -0 -0 0 0 0 0 0 0 0 0 0 0 0 0 0 0 0 0 0
0 -0 -0 -0 -0 -0 -0 -0 -0 -0 -0 -0 0 -0 0 0 0 0 0 0 0 0 -0 -0 -0 -0 -0 -0 -0 -0 0 0 0 0 0 0 0 0 0 0 0 0 0 0 0 0 0
0 -0 -0 -0 -0 -0 -0 -0 -0 -0 -0 -0 0 -0 0 0 0 0 0 0 0 -0 -0 -0 -0 -0 -0 -0 -0 -0 0 -0 0 0 0 0 0 0 0 0 0 0 0 0 0 0 0
0 0 -0 -0 0 0 -0 -0 -0 -0 -0 -0 0 -0 -0 0 0 0 0 0 0 -0 -0 -0 -0 0 -0 -0 -0 0 0 0 0 0 0 0 0 0 0 0 0 0 0 0 0 0 0
0 0 -0 -0 0 0 0 -0 -0 -0 -0 -0 -0 -0 0 0 0 0 0 0 0 0 0 0 0 0 0 0 0 0 0 0 0 0 0 0 0 0 0 0 0 0 0 0 0 0 0
0 0 0 -0 0 0 -0 -0 -0 -0 -0 -0 -0 -0 -0 0 0 0 0 0 0 0 0 0 0 -0 0 0 0 0 0 0 0 0 0 0 0 0 0 0 0 0 0 0 0 0 0
0 0 0 0 -0 -0 -0 -0 -0 -0 -0 -0 -0 -0 -0 -0 -0 0 0 0 0 0 0 0 0 0 0 0 0 0 0 0 0 0 0 0 0 0 0 0 0 0 0 0 0 0 0
0 0 0 0 -0 -0 -0 -0 -0 -0 -0 -0 -0 0 -0 -0 0 0 0 0 0 0 0 0 0 0 0 0 0 0 0 0 0 0 0 0 0 0 0 0 0 0 0 0 0 0 0
0 0 0 0 0 -0 -0 -0 -0 -0 -0 -0 -0 0 -0 -0 0 0 0 0 0 0 0 0 0 0 0 0 0 0 0 0 0 0 0 0 0 0 0 0 0 0 0 0 0 0 0
0 0 0 0 0 -0 -0 -0 -0 -0 -0 -0 0 0 0 0 0 0 0 0 0 0 0 0 0 0 0 0 0 0 0 0 0 0 0 0 0 0 0 0 0 0 0 0 0 0 0
-0 0 0 0 0 0 -0 -0 -0 -0 -0 0 0 0 0 0 0 0 0 0 0 0 0 0 0 0 0 0 0 0 0 0 0 0 0 0 0 0 0 0 0 0 0 0 0 0 0
-0 -0 0 0 0 0 0 0 -0 -0 -0 0 0 0 0 0 0 0 0 0 0 0 0 0 0 0 0 0 0 0 0 0 0 0 0 0 0 0 0 0 0 0 0 0 0 0 0
0 0 0 0 0 0 0 0 0 -0 0 0 0 0 0 0 0 0 0 0 0 0 0 0 0 0 0 0 0 0 0 0 0 0 0 0 0 0 0 0 0 0 0 0 0 0 0
0 0 0 0 -0 0 0 0 -0 0 0 0 0 0 0 0 0 0 0 0 0 0 0 0 0 0 0 0 0 0 0 0 0 0 0 0 0 0 -0 0 0 0 0 0 0 0 0
0 0 0 0 0 0 0 0 -0 -0 0 0 0 0 0 0 0 0 0 0 0 0 0 0 0 0 0 0 0 0 0 0 0 0 0 0 0 0 0 0 0 0 0 0 0 0 0
0 0 0 0 0 0 0 0 0 -0 0 0 0 0 0 0 0 0 0 0 0 0 0 0 0 0 0 0 0 0 0 0 0 0 0 0 0 0 0 0 0 0 0 0 0 0 0
0 0 0 0 0 0 0 0 0 0 0 0 0 0 0 0 0 0 0 0 0 0 0 0 0 0 0 0 0 0 0 0 0 0 0 0 0 0 0 0 0 0 0 0 0 0 0
0 0 0 0 0 0 0 0 0 0 0 0 0 0 0 0 0 0 0 0 0 0 0 0 0 0 0 0 0 0 0 0 0 0 0 0 0 0 0 0 0 0 0 0 0 0 0
0 0 0 0 0 0 0 0 0 0 0 0 0 0 0 0 0 0 0 0 0 0 0 0 0 0 0 0 0 0 0 0 0 0 0 0 0 0 0 0 0 0 0 0 0 0 0
0 0 0 0 0 0 0 0 0 0 0 0 0 0 0 0 0 0 0 0 0 0 0 0 0 0 0 0 0 0 0 0 0 0 0 0 0 0 0 0 0 0 0 0 0 0 0
0 0 0 0 0 0 0 0 0 0 0 0 0 0 0 0 0 0 0 0 0 0 0 0 0 0 0 0 0 0 0 0 0 0 0 0 0 0 0 0 0 -0 0 -0 0 0 0
0 0 0 0 0 0 0 0 0 0 0 0 0 0 0 0 0 0 0 0 0 0 0 0 0 0 0 0 0 0 0 0 0 0 0 0 0 0 0 0 0 0 0 0 0 0 0
0 0 0 0 0 0 0 0 0 0 0 0 0 0 0 0 0 0 0 0 0 0 0 0 0 0 0 0 0 0 0 0 0 0 0 0 0 0 0 0 0 0 0 0 0 0 0
0 0 0 0 0 0 0 0 0 0 0 0 0 0 0 0 0 0 0 0 0 0 0 0 0 0 0 0 0 0 0 0 0 0 0 0 0 0 0 0 0 0 0 -0 -0 0 0
0 0 0 0 0 0 0 0 0 0 0 0 0 0 0 0 0 0 0 0 0 0 0 0 0 0 0 0 0 0 0 0 0 0 0 0 0 0 0 0 0 0 0 0 0 0 0
0 0 0 0 0 0 0 0 0 0 0 0 0 0 0 0 0 0 0 0 0 0 0 0 0 0 0 0 0 0 0 0 0 0 0 0 0 0 0 0 0 0 0 -0 0 0 0
0 0 0 0 0 0 0 0 0 0 0 0 0 0 0 0 0 0 0 0 0 0 0 0 0 0 0 0 0 0 0 0 0 0 0 0 0 0 0 0 0 0 0 0 0 0 0
0 0 0 0 0 0 0 0 0 0 0 0 0 0 0 0 0 0 0 0 0 0 0 0 0 0 0 0 0 0 0 0 0 0 0 0 0 0 0 0 0 0 0 0 0 0 0
Wind_Speed_500mb
59 60 62 64 65 66 67 68 70 70 71 71 66 40 29 27 27 22 22 30 32 24 21 17 14 16 16 21 14 11 18 15 21 28 18 25 17 7 4 5 15 7 4 21 36 34 43
60 62 63 64 65 67 67 68 69 69 69 70 66 47 26 21 22 22 23 26 31 21 15 17 17 13 16 11 14 12 13 16 19 23 21 18 16 15 6 5 4 8 21 27 29 36 17
59 61 62 65 66 68 70 71 71 71 70 70 67 54 26 17 16 17 20 25 27 18 12 10 13 8 9 11 9 15 16 17 20 20 21 21 15 12 10 10 7 15 10 14 8 8 9
57 58 61 64 66 69 70 71 73 72 72 72 68 56 26 14 11 15 21 26 26 12 8 9 8 6 1 14 16 12 14 19 14 14 15 20 16 14 3 11 12 8 5 7 9 11 7
57 60 62 65 68 70 72 73 73 73 74 75 72 53 23 14 10 17 22 26 21 5 3 14 3 6 2 14 13 15 17 18 17 14 17 22 15 5 4 5 10 10 9 7 12 4 7
57 60 63 66 69 72 73 74 74 74 76 76 73 46 21 15 11 18 25 24 12 7 13 8 6 3 6 14 21 22 23 22 19 22 17 7 5 5 6 8 7 14 16 10 12 12 6
56 61 64 67 69 71 73 75 77 76 77 76 65 39 23 18 13 20 27 15 17 6 17 9 12 6 23 21 29 30 24 21 22 17 4 7 5 12 24 16 16 9 12 21 21 24 6
57 60 63 66 68 70 72 75 79 77 77 76 54 38 28 16 16 21 25 17 18 14 15 9 8 14 27 25 24 27 12 10 4 10 2 7 13 25 13 15 13 13 19 17 16 20 7
56 60 63 65 67 67 72 77 80 79 77 76 49 37 29 13 18 22 22 19 17 18 3 9 11 10 22 22 7 26 10 6 9 6 12 9 26 23 10 12 21 17 19 13 22 11 12
56 60 62 64 67 68 72 77 79 79 77 72 43 28 24 20 12 23 20 25 21 14 9 10 11 7 33 11 13 21 13 10 6 12 8 10 11 8 18 20 20 26 19 26 27 8 9
57 60 61 63 67 69 73 77 79 78 77 68 46 21 26 23 18 24 29 40 16 2 7 13 7 6 15 8 13 14 20 10 13 16 3 15 12 28 25 11 2 18 13 15 20 12 2
56 58 59 61 65 70 76 79 80 78 75 70 55 7 22 31 28 32 37 29 4 11 3 10 9 13 8 9 18 13 20 24 7 6 4 15 35 7 11 12 13 16 10 12 4 5 13
54 56 58 61 64 70 78 83 82 80 76 69 56 18 16 24 32 34 36 9 9 10 7 12 14 10 6 7 11 4 9 11 1 11 10 15 12 7 7 10 8 9 9 6 5 2 15
53 56 58 60 64 72 77 82 86 83 77 70 52 13 13 21 39 23 26 10 9 4 9 9 12 12 6 5 10 6 11 9 7 4 5 7 15 6 1 5 12 11 12 5 8 6 9
53 55 58 61 67 71 75 78 85 85 79 73 55 11 15 33 42 16 12 10 7 3 7 12 16 4 6 4 6 9 7 6 8 15 5 9 11 20 25 14 10 2 6 4 4 3 7
53 53 56 61 67 71 75 77 81 84 78 74 60 17 20 40 17 19 11 5 5 7 12 6 6 4 8 16 7 10 5 9 8 18 6 7 22 9 10 9 15 21 11 2 2 6 9
51 54 57 61 67 70 75 75 75 79 76 70 45 12 20 42 14 14 7 7 9 26 16 7 8 10 11 9 5 7 11 13 7 2 12 2 11 21 13 8 8 5 3 3 4 7 8
50 54 58 62 67 70 73 73 69 70 73 68 30 9 28 36 12 8 4 11 19 9 20 11 4 5 4 7 9 8 12 11 22 9 8 12 8 11 26 35 20 18 4 9 6 6 7
53 55 57 61 65 69 69 70 65 58 58 59 46 12 17 24 7 7 10 9 10 8 10 8 9 4 6 4 10 7 12 13 27 7 9 9 6 14 13 8 3 4 8 11 6 6 14
56 58 61 63 67 67 66 65 62 50 44 38 18 9 12 17 14 8 10 8 9 12 12 21 14 7 11 10 8 16 26 17 19 16 38 11 8 18 22 24 24 24 24 28 13 7 5
59 61 61 63 65 64 62 58 56 50 39 24 8 5 6 8 4 9 5 6 8 10 13 19 9 5 18 11 21 13 5 21 20 31 5 8 12 20 24 36 39 40 42 36 31 22 15
59 59 61 61 60 58 57 54 50 48 37 10 12 11 11 31 24 5 3 6 7 3 5 12 7 32 25 15 24 41 23 12 15 5 11 6 12 8 23 33 32 31 28 27 29 23 18
58 60 59 56 55 53 52 50 45 41 35 12 10 9 13 14 9 7 7 8 7 24 29 30 27 26 29 33 35 54 66 66 33 15 7 6 5 5 16 13 25 8 7 6 1 4 13
57 56 55 54 53 50 47 44 40 32 23 13 15 16 11 12 6 7 20 40 30 29 26 49 55 22 21 56 79 63 42 43 28 27 35 9 6 5 11 11 9 4 5 7 6 21 32
56 54 53 52 50 48 43 42 36 34 26 20 18 17 11 10 21 33 33 29 32 42 41 39 52 42 46 49 8 13 10 10 6 9 18 11 6 6 6 12 26 4 3 4 12 24 10
54 53 51 48 46 44 41 38 32 27 24 26 24 21 25 18 14 32 27 26 23 25 12 16 31 47 34 5 3 6 7 6 7 10 8 9 5 7 4 8 9 11 7 12 15 11 1
51 50 48 46 44 41 38 35 31 26 24 25 34 25 31 28 38 47 28 18 23 23 15 39 14 18 13 4 5 7 8 4 5 5 6 6 2 8 7 9 15 8 7 16 10 8 25
47 46 44 43 41 38 36 34 29 25 22 28 33 30 38 42 60 67 78 69 48 45 22 19 25 4 5 5 5 6 5 6 4 7 7 8 6 7 2 8 15 11 1 1 12 33 43
44 43 41 40 38 37 36 33 29 26 23 27 36 30 37 45 56 63 76 83 92 84 72 62 41 34 10 6 4 2 6 4 5 7 1 7 13 8 12 12 12 17 30 52 39 39 40
Wind_Direction_500mb
36 33 31 29 27 24 22 20 18 16 14 13 13 12 17 20 19 26 21 15 12 13 21 26 36 39 53 61 51 34 22 25 11 4 9 11 29 27 23 307 329 176 260 303 304 305 300
34 30 28 25 23 22 20 18 16 13 11 10 8 7 12 24 27 24 15 5 6 7 17 26 38 42 48 62 26 2 358 7 357 10 11 358 349 326 284 263 156 292 282 287 296 293 287
31 28 24 22 20 18 16 15 13 11 8 6 6 4 1 12 24 23 15 360 355 356 12 12 27 25 31 32 1 9 8 1 350 341 335 345 335 353 316 311 312 283 316 322 294 312 279
28 26 22 20 16 14 13 11 10 8 6 4 3 359 358 3 6 1 351 347 341 339 3 4 355 336 352 9 359 3 354 11 5 359 348 343 318 315 240 301 333 352 64 15 293 328 304
23 21 19 17 13 11 10 9 9 7 6 2 359 357 0 1 6 356 354 348 347 14 313 343 349 340 306 337 341 341 334 327 333 339 327 314 304 307 343 57 355 360 286 296 307 257 265
20 17 15 13 11 10 9 9 9 8 6 2 359 0 12 12 31 10 359 345 7 19 346 347 347 324 303 321 320 316 328 309 289 307 320 329 337 15 25 77 261 282 295 256 264 287 264
16 14 11 11 11 9 10 10 10 10 7 4 3 10 18 18 38 19 10 6 3 329 333 302 309 278 290 326 313 295 292 298 271 288 275 350 16 256 270 216 242 248 252 262 275 277 268
12 10 8 8 9 8 9 8 8 10 8 5 7 12 7 24 26 14 18 36 18 324 314 328 299 295 337 333 313 341 292 234 207 256 318 355 252 267 255 276 243 245 266 270 281 269 187
8 6 6 6 6 8 7 7 5 7 9 6 10 12 21 36 27 18 26 20 352 339 303 314 345 317 345 324 315 325 295 247 231 261 263 210 261 304 292 294 300 269 259 262 260 288 273
4 3 3 2 2 5 5 4 4 3 6 7 9 9 25 31 10 6 7 354 340 343 59 302 356 11 344 348 0 351 330 309 309 260 273 226 278 259 309 296 283 279 231 250 260 272 253
360 360 359 359 358 360 1 -0 0 1 1 6 5 19 28 17 12 3 345 335 315 342 23 309 308 318 359 56 294 342 350 302 253 282 130 259 282 307 306 248 113 247 239 249 270 250 246
356 356 356 355 354 354 355 356 357 358 358 2 0 328 19 15 10 354 344 341 110 45 323 323 322 324 13 308 330 303 336 324 306 324 246 252 288 225 217 284 253 259 315 285 46 175 249
352 353 352 351 351 352 352 351 353 356 355 359 3 2 342 351 344 346 343 333 32 94 347 314 309 310 337 272 317 285 311 338 357 356 312 327 283 284 217 322 349 64 41 310 313 318 247
348 348 347 347 348 348 349 349 349 352 352 353 4 8 37 2 352 333 345 52 60 212 269 295 288 298 259 327 265 290 301 315 225 168 303 317 327 5 191 189 263 271 177 218 264 237 275
341 342 343 344 345 347 348 350 347 349 351 349 354 308 337 346 353 7 6 56 212 244 291 297 311 303 294 310 266 3 262 233 237 181 248 315 268 289 285 272 187 228 194 209 224 238 262
334 336 339 341 343 344 346 348 345 344 349 350 350 349 1 356 2 4 70 232 239 235 318 311 297 256 283 307 299 357 279 224 241 198 168 290 293 277 302 299 234 200 151 136 23 250 255
328 332 336 338 340 341 342 345 347 343 347 351 356 359 348 352 348 46 103 252 290 314 338 290 266 270 284 298 293 276 261 290 217 35 160 276 230 294 325 229 220 183 194 252 238 189 209
329 332 334 336 337 339 341 344 348 345 346 353 358 351 339 357 41 40 41 314 313 297 336 288 310 320 275 298 280 261 244 212 326 169 203 218 262 276 282 285 267 236 224 215 236 222 248
330 329 331 333 334 336 339 340 345 349 352 352 336 304 353 356 78 348 313 287 271 320 319 327 302 36 312 300 345 252 280 280 310 182 271 189 245 303 300 1 6 99 207 221 270 251 203
325 327 328 330 332 334 336 337 339 350 351 352 339 344 351 48 100 91 337 288 303 323 299 353 283 5 359 309 245 274 284 292 339 276 287 228 234 239 266 280 298 287 271 263 219 237 219
319 322 323 325 328 331 334 336 338 343 352 355 345 337 359 313 329 328 213 267 295 336 343 327 308 52 332 287 300 244 245 304 294 291 291 185 256 260 269 271 270 271 282 283 274 239 236
313 317 320 323 326 328 330 333 336 338 351 7 0 355 344 302 294 287 252 242 236 241 255 279 231 305 309 259 243 284 286 265 245 287 163 204 280 279 291 278 268 276 279 278 270 284 279
312 316 318 321 324 326 328 330 335 338 345 19 354 308 304 279 289 293 244 236 269 332 292 232 321 301 299 284 276 280 279 269 245 256 223 223 261 287 289 316 308 316 219 236 272 244 294
310 313 316 319 320 322 324 327 332 336 336 319 306 309 282 272 238 243 288 289 290 293 264 295 295 269 258 308 301 295 272 256 242 234 208 186 234 235 290 327 346 213 54 299 301 286 299
309 312 313 315 317 320 323 325 331 339 340 308 286 283 273 269 270 283 272 282 297 305 292 273 278 281 304 309 310 321 324 7 203 181 187 187 148 283 286 309 283 255 183 313 329 321 46
306 308 310 311 314 317 319 323 329 331 334 315 300 270 269 288 243 266 296 302 296 285 285 242 305 297 315 263 285 259 253 233 299 327 164 139 187 214 315 292 267 235 213 263 272 270 338
303 305 307 309 312 314 316 316 326 328 329 312 293 282 267 273 276 269 264 271 292 282 290 291 318 313 264 252 246 225 258 266 259 234 237 279 233 214 231 247 273 199 230 301 346 303 294
301 304 307 309 311 311 311 311 313 318 322 311 301 294 279 269 272 271 273 271 273 262 268 304 340 275 304 245 218 260 212 258 300 244 233 205 233 227 222 265 272 165 44 240 259 300 290
300 303 305 307 310 311 310 308 307 313 306 304 300 307 294 278 271 276 268 267 271 268 269 264 248 266 284 293 237 308 291 291 193 266 104 254 195 196 196 231 242 254 263 294 299 293 291
Wind_Speed_850mb
59 60 62 64 65 66 67 68 70 70 71 71 66 40 29 27 27 22 22 30 32 24 21 17 14 16 16 21 14 11 18 15 21 28 18 25 17 7 4 5 15 7 4 21 36 34 43
60 62 63 64 65 67 67 68 69 69 69 70 66 47 26 21 22 22 23 26 31 21 15 17 17 13 16 11 14 12 13 16 19 23 21 18 16 15 6 5 4 8 21 27 29 36 17
59 61 62 65 66 68 70 71 71 71 70 70 67 54 26 17 16 17 20 25 27 18 12 10 13 8 9 11 9 15 16 17 20 20 21 21 15 12 10 10 7 15 10 14 8 8 9
57 58 61 64 66 69 70 71 73 72 72 72 68 56 26 14 11 15 21 26 26 12 8 9 8 6 1 14 16 12 14 19 14 14 15 20 16 14 3 11 12 8 5 7 9 11 7
57 60 62 65 68 70 72 73 73 73 74 75 72 53 23 14 10 17 22 26 21 5 3 14 3 6 2 14 13 15 17 18 17 14 17 22 15 5 4 5 10 10 9 7 12 4 7
57 60 63 66 69 72 73 74 74 74 76 76 73 46 21 15 11 18 25 24 12 7 13 8 6 3 6 14 21 22 23 22 19 22 17 7 5 5 6 8 7 14 16 10 12 12 6
56 61 64 67 69 71 73 75 77 76 77 76 65 39 23 18 13 20 27 15 17 6 17 9 12 6 23 21 29 30 24 21 22 17 4 7 5 12 24 16 16 9 12 21 21 24 6
57 60 63 66 68 70 72 75 79 77 77 76 54 38 28 16 16 21 25 17 18 14 15 9 8 14 27 25 24 27 12 10 4 10 2 7 13 25 13 15 13 13 19 17 16 20 7
56 60 63 65 67 67 72 77 80 79 77 76 49 37 29 13 18 22 22 19 17 18 3 9 11 10 22 22 7 26 10 6 9 6 12 9 26 23 10 12 21 17 19 13 22 11 12
56 60 62 64 67 68 72 77 79 79 77 72 43 28 24 20 12 23 20 25 21 14 9 10 11 7 33 11 13 21 13 10 6 12 8 10 11 8 18 20 20 26 19 26 27 8 9
57 60 61 63 67 69 73 77 79 78 77 68 46 21 26 23 18 24 29 40 16 2 7 13 7 6 15 8 13 14 20 10 13 16 3 15 12 28 25 11 2 18 13 15 20 12 2
56 58 59 61 65 70 76 79 80 78 75 70 55 7 22 31 28 32 37 29 4 11 3 10 9 13 8 9 18 13 20 24 7 6 4 15 35 7 11 12 13 16 10 12 4 5 13
54 56 58 61 64 70 78 83 82 80 76 69 56 18 16 24 32 34 36 9 9 10 7 12 14 10 6 7 11 4 9 11 1 11 10 15 12 7 7 10 8 9 9 6 5 2 15
53 56 58 60 64 72 77 82 86 83 77 70 52 13 13 21 39 23 26 10 9 4 9 9 12 12 6 5 10 6 11 9 7 4 5 7 15 6 1 5 12 11 12 5 8 6 9
53 55 58 61 67 71 75 78 85 85 79 73 55 11 15 33 42 16 12 10 7 3 7 12 16 4 6 4 6 9 7 6 8 15 5 9 11 20 25 14 10 2 6 4 4 3 7
53 53 56 61 67 71 75 77 81 84 78 74 60 17 20 40 17 19 11 5 5 7 12 6 6 4 8 16 7 10 5 9 8 18 6 7 22 9 10 9 15 21 11 2 2 6 9
51 54 57 61 67 70 75 75 75 79 76 70 45 12 20 42 14 14 7 7 9 26 16 7 8 10 11 9 5 7 11 13 7 2 12 2 11 21 13 8 8 5 3 3 4 7 8
50 54 58 62 67 70 73 73 69 70 73 68 30 9 28 36 12 8 4 11 19 9 20 11 4 5 4 7 9 8 12 11 22 9 8 12 8 11 26 35 20 18 4 9 6 6 7
53 55 57 61 65 69 69 70 65 58 58 59 46 12 17 24 7 7 10 9 10 8 10 8 9 4 6 4 10 7 12 13 27 7 9 9 6 14 13 8 3 4 8 11 6 6 14
56 58 61 63 67 67 66 65 62 50 44 38 18 9 12 17 14 8 10 8 9 12 12 21 14 7 11 10 8 16 26 17 19 16 38 11 8 18 22 24 24 24 24 28 13 7 5
59 61 61 63 65 64 62 58 56 50 39 24 8 5 6 8 4 9 5 6 8 10 13 19 9 5 18 11 21 13 5 21 20 31 5 8 12 20 24 36 39 40 42 36 31 22 15
59 59 61 61 60 58 57 54 50 48 37 10 12 11 11 31 24 5 3 6 7 3 5 12 7 32 25 15 24 41 23 12 15 5 11 6 12 8 23 33 32 31 28 27 29 23 18
58 60 59 56 55 53 52 50 45 41 35 12 10 9 13 14 9 7 7 8 7 24 29 30 27 26 29 33 35 54 66 66 33 15 7 6 5 5 16 13 25 8 7 6 1 4 13
57 56 55 54 53 50 47 44 40 32 23 13 15 16 11 12 6 7 20 40 30 29 26 49 55 22 21 56 79 63 42 43 28 27 35 9 6 5 11 11 9 4 5 7 6 21 32
56 54 53 52 50 48 43 42 36 34 26 20 18 17 11 10 21 33 33 29 32 42 41 39 52 42 46 49 8 13 10 10 6 9 18 11 6 6 6 12 26 4 3 4 12 24 10
54 53 51 48 46 44 41 38 32 27 24 26 24 21 25 18 14 32 27 26 23 25 12 16 31 47 34 5 3 6 7 6 7 10 8 9 5 7 4 8 9 11 7 12 15 11 1
51 50 48 46 44 41 38 35 31 26 24 25 34 25 31 28 38 47 28 18 23 23 15 39 14 18 13 4 5 7 8 4 5 5 6 6 2 8 7 9 15 8 7 16 10 8 25
47 46 44 43 41 38 36 34 29 25 22 28 33 30 38 42 60 67 78 69 48 45 22 19 25 4 5 5 5 6 5 6 4 7 7 8 6 7 2 8 15 11 1 1 12 33 43
44 43 41 40 38 37 36 33 29 26 23 27 36 30 37 45 56 63 76 83 92 84 72 62 41 34 10 6 4 2 6 4 5 7 1 7 13 8 12 12 12 17 30 52 39 39 40
Wind_Direction_850mb
36 33 31 29 27 24 22 20 18 16 14 13 13 12 17 20 19 26 21 15 12 13 21 26 36 39 53 61 51 34 22 25 11 4 9 11 29 27 23 307 329 176 260 303 304 305 300
34 30 28 25 23 22 20 18 16 13 11 10 8 7 12 24 27 24 15 5 6 7 17 26 38 42 48 62 26 2 358 7 357 10 11 358 349 326 284 263 156 292 282 287 296 293 287
31 28 24 22 20 18 16 15 13 11 8 6 6 4 1 12 24 23 15 360 355 356 12 12 27 25 31 32 1 9 8 1 350 341 335 345 335 353 316 311 312 283 316 322 294 312 279
28 26 22 20 16 14 13 11 10 8 6 4 3 359 358 3 6 1 351 347 341 339 3 4 355 336 352 9 359 3 354 11 5 359 348 343 318 315 240 301 333 352 64 15 293 328 304
23 21 19 17 13 11 10 9 9 7 6 2 359 357 0 1 6 356 354 348 347 14 313 343 349 340 306 337 341 341 334 327 333 339 327 314 304 307 343 57 355 360 286 296 307 257 265
20 17 15 13 11 10 9 9 9 8 6 2 359 0 12 12 31 10 359 345 7 19 346 347 347 324 303 321 320 316 328 309 289 307 320 329 337 15 25 77 261 282 295 256 264 287 264
16 14 11 11 11 9 10 10 10 10 7 4 3 10 18 18 38 19 10 6 3 329 333 302 309 278 290 326 313 295 292 298 271 288 275 350 16 256 270 216 242 248 252 262 275 277 268
12 10 8 8 9 8 9 8 8 10 8 5 7 12 7 24 26 14 18 36 18 324 314 328 299 295 337 333 313 341 292 234 207 256 318 355 252 267 255 276 243 245 266 270 281 269 187
8 6 6 6 6 8 7 7 5 7 9 6 10 12 21 36 27 18 26 20 352 339 303 314 345 317 345 324 315 325 295 247 231 261 263 210 261 304 292 294 300 269 259 262 260 288 273
4 3 3 2 2 5 5 4 4 3 6 7 9 9 25 31 10 6 7 354 340 343 59 302 356 11 344 348 0 351 330 309 309 260 273 226 278 259 309 296 283 279 231 250 260 272 253
360 360 359 359 358 360 1 -0 0 1 1 6 5 19 28 17 12 3 345 335 315 342 23 309 308 318 359 56 294 342 350 302 253 282 130 259 282 307 306 248 113 247 239 249 270 250 246
356 356 356 355 354 354 355 356 357 358 358 2 0 328 19 15 10 354 344 341 110 45 323 323 322 324 13 308 330 303 336 324 306 324 246 252 288 225 217 284 253 259 315 285 46 175 249
352 353 352 351 351 352 352 351 353 356 355 359 3 2 342 351 344 346 343 333 32 94 347 314 309 310 337 272 317 285 311 338 357 356 312 327 283 284 217 322 349 64 41 310 313 318 247
348 348 347 347 348 348 349 349 349 352 352 353 4 8 37 2 352 333 345 52 60 212 269 295 288 298 259 327 265 290 301 315 225 168 303 317 327 5 191 189 263 271 177 218 264 237 275
341 342 343 344 345 347 348 350 347 349 351 349 354 308 337 346 353 7 6 56 212 244 291 297 311 303 294 310 266 3 262 233 237 181 248 315 268 289 285 272 187 228 194 209 224 238 262
334 336 339 341 343 344 346 348 345 344 349 350 350 349 1 356 2 4 70 232 239 235 318 311 297 256 283 307 299 357 279 224 241 198 168 290 293 277 302 299 234 200 151 136 23 250 255
328 332 336 338 340 341 342 345 347 343 347 351 356 359 348 352 348 46 103 252 290 314 338 290 266 270 284 298 293 276 261 290 217 35 160 276 230 294 325 229 220 183 194 252 238 189 209
329 332 334 336 337 339 341 344 348 345 346 353 358 351 339 357 41 40 41 314 313 297 336 288 310 320 275 298 280 261 244 212 326 169 203 218 262 276 282 285 267 236 224 215 236 222 248
330 329 331 333 334 336 339 340 345 349 352 352 336 304 353 356 78 348 313 287 271 320 319 327 302 36 312 300 345 252 280 280 310 182 271 189 245 303 300 1 6 99 207 221 270 251 203
325 327 328 330 332 334 336 337 339 350 351 352 339 344 351 48 100 91 337 288 303 323 299 353 283 5 359 309 245 274 284 292 339 276 287 228 234 239 266 280 298 287 271 263 219 237 219
319 322 323 325 328 331 334 336 338 343 352 355 345 337 359 313 329 328 213 267 295 336 343 327 308 52 332 287 300 244 245 304 294 291 291 185 256 260 269 271 270 271 282 283 274 239 236
313 317 320 323 326 328 330 333 336 338 351 7 0 355 344 302 294 287 252 242 236 241 255 279 231 305 309 259 243 284 286 265 245 287 163 204 280 279 291 278 268 276 279 278 270 284 279
312 316 318 321 324 326 328 330 335 338 345 19 354 308 304 279 289 293 244 236 269 332 292 232 321 301 299 284 276 280 279 269 245 256 223 223 261 287 289 316 308 316 219 236 272 244 294
310 313 316 319 320 322 324 327 332 336 336 319 306 309 282 272 238 243 288 289 290 293 264 295 295 269 258 308 301 295 272 256 242 234 208 186 234 235 290 327 346 213 54 299 301 286 299
309 312 313 315 317 320 323 325 331 339 340 308 286 283 273 269 270 283 272 282 297 305 292 273 278 281 304 309 310 321 324 7 203 181 187 187 148 283 286 309 283 255 183 313 329 321 46
306 308 310 311 314 317 319 323 329 331 334 315 300 270 269 288 243 266 296 302 296 285 285 242 305 297 315 263 285 259 253 233 299 327 164 139 187 214 315 292 267 235 213 263 272 270 338
303 305 307 309 312 314 316 316 326 328 329 312 293 282 267 273 276 269 264 271 292 282 290 291 318 313 264 252 246 225 258 266 259 234 237 279 233 214 231 247 273 199 230 301 346 303 294
301 304 307 309 311 311 311 311 313 318 322 311 301 294 279 269 272 271 273 271 273 262 268 304 340 275 304 245 218 260 212 258 300 244 233 205 233 227 222 265 272 165 44 240 259 300 290
300 303 305 307 310 311 310 308 307 313 306 304 300 307 294 278 271 276 268 267 271 268 269 264 248 266 284 293 237 308 291 291 193 266 104 254 195 196 196 231 242 254 263 294 299 293 291